Flag for Ireland Weather past 2 weeks in Dublin, Ireland

Now
50 °F

Partly cloudy.


Feels Like: 45 °F
Forecast: 44 / 63 °F
Wind: 15 mph from Northwest

Location: Dublin Airport

Current Time: Jul 29, 2015 at 3:50:19 AM

Latest Report: Jul 29, 2015 at 3:00 AM


Visibility: N/A

Pressure: 29.80 "Hg

Humidity: 94%

Dew point: 48 °F

Location of DublinLocation

Historic Weather in Dublin — Graph

°F

Dublin temperature yesterday

Maximum temperature yesterday: 61 °F (at 12:30 PM)
Minimum temperature yesterday: 50 °F (at 9:30 PM)
Average temperature yesterday: 54 °F

Past Weeks' High & Low Weather Summary

 TemperatureHumidityPressure
High70 °F (Jul 20, 2:00 PM)100% (Jul 14, 4:00 AM)30.18 "Hg (Jul 14, 4:00 AM)
Low41 °F (Jul 15, 5:00 AM)45% (Jul 15, 3:30 PM)29.30 "Hg (Jul 26, 5:00 PM)
Average56 °F80%29.82 "Hg
* Reported Jul 14 3:00 AM — Jul 29 3:00 AM, Dublin, Weather by CustomWeather, © 2015

Note: Actual official high and low records may vary slightly from our data, if they occured in-between our weather recording intervals... More about our weather records

Advertising

Dublin weather history for previous 24 hours

 ConditionsComfort  
Time TempWeatherWind HumidityBarometerVisibility
3:00 AM
Wed, Jul 29
50 °FPartly cloudy.15 mph94%29.80 "HgN/A
2:00 AM50 °FPartly cloudy.15 mph94%29.80 "HgN/A
1:30 AM50 °FPartly cloudy.17 mph94%29.80 "HgN/A
1:00 AM50 °FPassing clouds.15 mph94%29.77 "HgN/A
12:30 AM50 °FPassing clouds.15 mph94%29.77 "HgN/A
12:00 AM50 °FSprinkles. Passing clouds.16 mph94%29.77 "HgN/A
11:30 PM
Tue, Jul 28
50 °FPassing clouds.16 mph94%29.77 "HgN/A
11:00 PM52 °FPassing clouds.15 mph88%29.77 "HgN/A
10:30 PM52 °FPassing clouds.14 mph88%29.77 "HgN/A
10:00 PM50 °FScattered clouds.13 mph88%29.77 "HgN/A
9:30 PM50 °FScattered clouds.12 mph88%29.74 "HgN/A
9:00 PM54 °FScattered clouds.14 mph77%29.74 "HgN/A
8:30 PM54 °FPartly sunny.10 mph82%29.74 "HgN/A
8:00 PM54 °FPartly sunny.10 mph82%29.74 "HgN/A
7:30 PM52 °FSprinkles. Broken clouds.13 mph82%29.74 "HgN/A
7:00 PM52 °FSprinkles. Partly sunny.10 mph88%29.74 "HgN/A
6:30 PM52 °FRain showers. Partly sunny.18 mph88%29.74 "HgN/A
6:00 PM59 °FPassing clouds.20 mph63%29.71 "HgN/A
5:30 PM57 °FPassing clouds.14 mph77%29.71 "HgN/A
5:00 PM57 °FScattered clouds.12 mph82%29.71 "HgN/A
4:30 PM52 °FSprinkles. Partly sunny.20 mph82%29.74 "Hg4 mi
4:00 PM59 °FPassing clouds.18 mph68%29.71 "HgN/A
3:30 PM57 °FSprinkles. Scattered clouds.16 mph77%29.71 "HgN/A
3:00 PM57 °FSprinkles. Scattered clouds.21 mph72%29.71 "HgN/A
2:30 PM61 °FScattered clouds.15 mph59%29.71 "HgN/A
2:00 PM61 °FScattered clouds.15 mph59%29.71 "HgN/A
1:30 PM61 °FScattered clouds.21 mph59%29.71 "HgN/A
1:00 PM61 °FPassing clouds.18 mph63%29.71 "HgN/A
12:30 PM61 °FScattered clouds.20 mph59%29.71 "HgN/A
12:00 PM59 °FPassing clouds.20 mph68%29.71 "HgN/A
11:30 AM59 °FScattered clouds.20 mph68%29.71 "HgN/A
11:00 AM57 °FPassing clouds.22 mph72%29.71 "HgN/A
10:30 AM57 °FPassing clouds.22 mph72%29.68 "HgN/A
10:00 AM55 °FPassing clouds.24 mph77%29.68 "HgN/A
9:30 AM55 °FPassing clouds.22 mph72%29.68 "HgN/A
9:00 AM55 °FPassing clouds.22 mph77%29.68 "HgN/A
8:30 AM54 °FScattered clouds.22 mph82%29.68 "HgN/A
8:00 AM54 °FBroken clouds.20 mph82%29.68 "HgN/A
7:30 AM52 °FBroken clouds.15 mph88%29.68 "HgN/A
7:00 AM52 °FBroken clouds.17 mph88%29.68 "HgN/A
6:30 AM52 °FPartly cloudy.16 mph88%29.68 "HgN/A
6:00 AM52 °FPassing clouds.16 mph88%29.68 "HgN/A
5:30 AM52 °FPassing clouds.17 mph88%29.65 "HgN/A
5:00 AM52 °FPartly cloudy.16 mph88%29.65 "HgN/A
4:30 AM52 °FPassing clouds.17 mph88%29.65 "HgN/A
4:00 AM52 °FPassing clouds.20 mph88%29.62 "HgN/A
3:30 AM52 °FPartly cloudy.18 mph94%29.62 "HgN/A
3:00 AM52 °FPartly cloudy.20 mph94%29.62 "HgN/A
Weather by CustomWeather, © 2015

See weather overviewHow to use our weather pages